Tracking 18980 objects as of 19-Feb-2018
HD Live streaming from Space Station
objects crossing your sky now

FENGYUN 1C DEB

Track FENGYUN 1C DEB now!
10-day predictions


NORAD ID: 35183
Int'l Code: 1999-025DNP
Perigee: 622.5 km
Apogee: 770.1 km
Inclination: 98.9 °
Period: 98.5 minutes
Semi major axis: 7067 km
RCS: 0.0115 m2 (small)
Launch date: May 10, 1999
Source: People's Republic of China (PRC)
Launch site: Taiyaun Space Center, China (TSC)

Note: This is SATELLITE DEBRIS
aabbcc
Your satellite tracking list
Your tracking list is empty




NASA's NSSDC Master Catalog

Two Line Element Set (TLE):
1 35183U 99025DNP 18048.93074237 +.00001095 +00000-0 +21672-3 0  9997
2 35183 098.8534 306.1586 0104392 037.9475 322.9021 14.61241430244502
Source of the keplerian elements: AFSPC